Retour au catalogue

STARLINK-2542

ActifCommunicationsVLEO
NORAD 48292·PAYLOAD·🇺🇸 United States

Lancé Apr 29, 2021 depuis Cape Canaveral Space Force Station

Loading…

Prochains Passages (prochaines 24 heures)

TLE

FraisSource: CelesTrak SupGP

Époque: Sep 14, 2026, 21:56 UTC

1 48292C 21036S   26257.91437500  .00050345  00000+0  16187-2 0  2576
2 48292  53.1581 274.6394 0001291  85.7674 322.2127 15.31681795    11

Suivez STARLINK-2542 en temps réel avec AllMySat

Download on the App Store